Jadwal Kapal Pelni KM Bukit Siguntang 2019

Jadwal Keberangkatan Kapal KM Bukit Siguntang – Kapal pelni bukit siguntang adalah salah satu kapal penumpang yang sejak lama di oprasikan oleh PT. Pelni untuk rute pelayaran tujuan Makassar, Pare Pare, Balikpapan, Toli Toli, Tarakan, Nunukan, Maumere Sikka, Lewoleba, Tenau Kupang, bagi anda yang hendak melakukan perjalanan dengan tujuan rute kapal pelni km bukit siguntang di atas tadi anda bisa menumpang atau menggunakan kapal km Bukit Siguntang.

Untuk penyebrangan anda ke tempat tujuan anda, bagi anda yang sedang membutuhkan informasi mengenai jadwal terbaru kapal laut km bukit siguntang admin akan memberikan info terbaru mengenai jadwal kapal km bukit siguntang bulan ini, perlu anda ketahui untuk pemesanan tiket kapal pelni anda bisa melalui agen pelni yang tersebar di berbagai wilayah maupun kota seperti agen tiket pelni Surabaya, Makassar, Medan, Ambon, Jayapura, Jakarta dan masih banyak lainya.

Jadwal Kapal Bukit Siguntang

Jadwal Kapal Pelni KM Bukit Siguntang

Untuk pembelian tiket kapal pelni secara online anda bisa langsung menuju website resmi pelni.co.id, untuk pembelian tiket kapal pelni selanjutnya anda bisa melakukan melalui Indomart, Alfamart, Ata Tour, Fast Travel Dan MMBC, admin selalu mengupdate jadwal kapal pelni di setiap bulanya, bagi anda yang ingin mengetahui jadwal kapal pelni lebaran 2019 maupun harga tiket kapal pelni lebaran 2019, admin akan mengupdate jadwal kapal lebaran 2019 di info artikel selanjutnya.

Sebelum admin memberikan informasi jadwal kapal laut KM bukit siguntang ada baiknya anda sedikit mengeathui informasi mengenai beberapa fasilitas yang sudah di perbaru oleh pelni guna untuk kenyamanan para penumpang kapal pelni yang hendak melakukan perjalan berlayarnya menuju pelabuhan yang mereka tuju, beberapa fasilitas pelni yang sudah di perbarui yaitu saat ini sudah ada tempat tidur yang layak bagi penumpang kapal pelni, nah untuk mengetahui detail info jadwal terbaru kapal bukit siguntang anda bisa melihat tabel di bawah ini mengenai jadwal kapal bukit siguntang bulan ini sebagai berikut.

Jadwal Kapal Pelni KM Bukit Siguntang Terbaru

BERANGKAT DARI PELABUHANTIBA DI PELABUHANWAKTU KEBERANGKATAN KAPAL PELNI BUKIT SIGUNTANGWAKTU TIBA KAPAL PELNI BUKIT SIGUNTANG
BALIKPAPANPARE-PARE25-11-2018 | 17:0026-11-2018 | 09:00
PARE-PAREMAKASSAR26-11-2018 | 12:0026-11-2018 | 17:00
MAKASSARPARE-PARE27-11-2018 | 01:0027-11-2018 | 05:00
PARE-PAREBALIKPAPAN27-11-2018 | 08:0028-11-2018 | 00:01
BALIKPAPANTARAKAN28-11-2018 | 02:0029-11-2018 | 02:00
TARAKANNUNUKAN29-11-2018 | 06:0029-11-2018 | 12:00
NUNUKANTOLI-TOLI29-11-2018 | 14:0030-11-2018 | 07:00
TOLI-TOLIBALIKPAPAN30-11-2018 | 08:0001-12-2018 | 03:00
BALIKPAPANPARE-PARE01-12-2018 | 04:0001-12-2018 | 20:00
PARE-PAREMAKASSAR01-12-2018 | 23:0002-12-2018 | 04:00
MAKASSARMAUMERE [SIKKA]02-12-2018 | 08:0003-12-2018 | 02:00
MAUMERE [SIKKA]LEWOLEBA03-12-2018 | 04:0003-12-2018 | 10:00
LEWOLEBATENAU [KUPANG]03-12-2018 | 12:0003-12-2018 | 20:00
TENAU [KUPANG]LEWOLEBA03-12-2018 | 23:0004-12-2018 | 07:00
LEWOLEBAMAUMERE [SIKKA]04-12-2018 | 08:004-12-2018 | 14:00
MAUMERE [SIKKA]MAKASSAR04-12-2018 | 16:0005-12-2018 | 10:00
MAKASSARPARE-PARE05-12-2018 | 13:0005-12-2018 | 17:00
PARE-PAREBALIKPAPAN05-12-2018 | 21:0006-12-2018 | 13:00
BALIKPAPANTOLI-TOLI06-12-2018 | 15:0007-12-2018 | 10:00
TOLI-TOLITARAKAN07-12-2018 | 12:0008-12-2018 | 03:00
TARAKANNUNUKAN08-12-2018 | 07:0008-12-2018 | 13:00
NUNUKANBALIKPAPAN08-12-2018 | 15:0009-12-2018 | 18:00
BALIKPAPANPARE-PARE09-12-2018 | 19:0010-12-2018 | 11:00
PARE-PAREMAKASSAR10-12-2018 | 14:0010-12-2018 | 19:00
MAKASSARPARE-PARE11-12-2018 | 18:0011-12-2018 | 23:00
PARE-PAREBALIKPAPAN12-12-2018 | 02:0012-12-2018 | 18:00
BALIKPAPANTARAKAN12-12-2018 | 20:0013-12-2018 | 20:00
TARAKANNUNUKAN13-12-2018 | 23:5914-12-2018 | 06:00
NUNUKANTOLI-TOLI14-12-2018 | 09:0015-12-2018 | 02:00
TOLI-TOLIBALIKPAPAN15-12-2018 | 04:0015-12-2018 | 22:00
BALIKPAPANPARE-PARE15-12-2018 | 23:5916-12-2018 | 15:00
PARE-PAREMAKASSAR16-12-2018 | 18:0016-12-2018 | 23:00
MAKASSARPARE-PARE17-12-2018 | 06:0017-12-2018 | 11:00
PARE-PAREBALIKPAPAN17-12-2018 | 14:0018-12-2018 | 06:00
BALIKPAPANTOLI-TOLI18-12-2018 | 08:0019-12-2018 | 01:00
TOLI-TOLITARAKAN19-12-2018 | 03:0019-12-2018 | 18:00
TARAKANNUNUKAN19-12-2018 | 22:0020-12-2018 | 04:00
NUNUKANBALIKPAPAN20-12-2018 | 07:0021-12-2018 | 09:00
BALIKPAPANPARE-PARE21-12-2018 | 11:0022-12-2018 | 02:00
PARE-PAREMAKASSAR22-12-2018 | 05:0022-12-2018 | 10:00
MAKASSARMAUMERE [SIKKA]22-12-2018 | 16:0023-12-2018 | 09:00
MAUMERE [SIKKA]LEWOLEBA23-12-2018 | 11:0023-12-2018 | 17:00
LEWOLEBATENAU [KUPANG]23-12-2018 | 19:0024-12-2018 | 02:00
TENAU [KUPANG]LEWOLEBA24-12-2018 | 06:0024-12-2018 | 13:00
LEWOLEBAMAUMERE [SIKKA]24-12-2018 | 15:0024-12-2018 | 21:00
MAUMERE [SIKKA]MAKASSAR24-12-2018 | 23:0025-12-2018 | 16:00
MAKASSARPARE-PARE25-12-2018 | 21:0026-12-2018 | 02:00
PARE-PAREBALIKPAPAN26-12-2018 | 05:0026-12-2018 | 21:00
BALIKPAPANTOLI-TOLI26-12-2018 | 23:0027-12-2018 | 17:00
TOLI-TOLITARAKAN27-12-2018 | 19:0028-12-2018 | 10:00
TARAKANNUNUKAN28-12-2018 | 14:0028-12-2018 | 20:00
NUNUKANBALIKPAPAN28-12-2018 | 22:0030-12-2018 | 00:01
BALIKPAPANPARE-PARE30-12-2018 | 02:0030-12-2018 | 18:00
PARE-PAREMAKASSAR30-12-2018 | 20:0031-12-2018 | 02:00
MAKASSARPARE-PARE31-12-2018 | 17:0031-12-2018 | 22:00
PARE-PAREBALIKPAPAN01-01-2019 | 01:0001-01-2019 | 17:00
BALIKPAPANTARAKAN01-01-2019 | 19:0002-01-2019 | 19:00
TARAKANNUNUKAN02-01-2019 | 23:0003-01-2019 | 05:00
NUNUKANTOLI-TOLI03-01-2019 | 07:0004-01-2019 | 00:01
TOLI-TOLIBALIKPAPAN04-01-2019 | 02:0004-01-2019 | 20:00
BALIKPAPANPARE-PARE04-01-2019 | 22:0005-01-2019 | 13:00
PARE-PAREMAKASSAR05-01-2019 | 16:0005-01-2019 | 21:00
MAKASSARMAUMERE [SIKKA]06-01-2019 | 03:0006-01-2019 | 20:00
MAUMERE [SIKKA]LEWOLEBA06-01-2019 | 22:0007-01-2019 | 04:00
LEWOLEBATENAU [KUPANG]07-01-2019 | 06:0007-01-2019 | 13:00
TENAU [KUPANG]LEWOLEBA07-01-2019 | 17:0008-01-2019 | 00:01
LEWOLEBAMAUMERE [SIKKA]08-01-2019 | 02:0008-01-2019 | 08:00
MAUMERE [SIKKA]MAKASSAR08-01-2019 | 10:0009-01-2019 | 03:00
MAKASSARPARE-PARE09-01-2019 | 08:0009-01-2019 | 13:00
PARE-PAREBALIKPAPAN09-01-2019 | 16:0010-01-2019 | 08:00
BALIKPAPANTOLI-TOLI10-01-2019 | 10:0011-01-2019 | 04:00
TOLI-TOLITARAKAN11-01-2019 | 06:0011-01-2019 | 21:00
TARAKANNUNUKAN12-01-2019 | 01:0012-01-2019 | 07:00
NUNUKANBALIKPAPAN12-01-2019 | 09:0013-01-2019 | 11:00
BALIKPAPANPARE-PARE13-01-2019 | 13:0014-01-2019 | 05:00
PARE-PAREMAKASSAR14-01-2019 | 07:0014-01-2019 | 12:00
MAKASSARPARE-PARE14-01-2019 | 16:0014-01-2019 | 21:00
PARE-PAREBALIKPAPAN14-01-2019 | 23:0015-01-2019 | 15:00
BALIKPAPANTARAKAN15-01-2019 | 17:0016-01-2019 | 17:00
TARAKANNUNUKAN16-01-2019 | 21:0017-01-2019 | 03:00
NUNUKANBALIKPAPAN17-01-2019 | 05:0018-01-2019 | 07:00
BALIKPAPANPARE-PARE18-01-2019 | 09:0019-01-2019 | 01:00

Keterangan

  • Perlu anda ketahui bahwa jadwal keberangkatan kapal pelni bukit siguntang ini, sewaktu-waktu bisa mengalami perubahan tanpa adanya pemberitahuan terlebih dahulu yang disebabkan banyak faktor, seperti karena keterlambatan keberangkatan dari pelabuhan sebelumnya atau disebabkan oleh penyebab lainnya.
  • Kapal pelni bukit siguntang ini hanya menyediakan tiket kelas ekonomi saja, jadi anda jangan berharap untuk mencari tiket kelas 1 atau kelas 2.
  • Harga tiket kapal pelni ini dibedakan berdasarkan kelompok usia tertentu yang terbagi ke dalam 3 golongan yaitu bayi (0-23 bulan), anak (2-11 tahun) dan dewasa ( > 11 tahun).

Harga Tiket Kapal Laut Pelni Bukit Siguntang

  1. Harga Tiket Pelni KM Bukit Siguntang Makassar – Pare-Pare ∴∴ Rp145.000 Rp114.000 Rp20.000
  2. Harga Tiket Pelni KM Bukit Siguntang Makassar – Balikpapan ∴∴ Rp 196.000 Rp 151.000 Rp 25.000
  3. Harga Tiket Pelni KM Bukit Siguntang Makassar – Tarakan ∴∴ Rp 337.000 Rp 257.000 Rp 39.000
  4. Harga Tiket Pelni KM Bukit Siguntang Makassar – Nunukan ∴∴ Rp 389.000 Rp 297.000 Rp 44.000
  5. Harga Tiket Pelni KM Bukit Siguntang Makassar – Kupang ∴∴ Rp 379.000 Rp 289.000 Rp 43.000
  6. Harga Tiket Pelni KM Bukit Siguntang Makassar – Maumere ∴∴ Rp179.000 Rp139.000 Rp23.000
  7. Harga Tiket Pelni KM Bukit Siguntang Pare-Pare – Balikpapan ∴∴ Rp184.000 Rp144.000 Rp23.000
  8. Harga Tiket Pelni KM Bukit Siguntang Balikpapan – Tarakan ∴∴ Rp267.500 Rp207.500 Rp32.000 
  9. Harga Tiket Pelni KM Bukit Siguntang Tarakan – Nunukan ∴∴ Rp82.000 Rp66.000 Rp13.000 
  10. Harga Tiket Pelni KM Bukit Siguntang Nunukan – Balikpapan ∴∴ Rp270.000 Rp208.000 Rp32.000  
  11. Harga Tiket Pelni KM Bukit Siguntang Balikpapan – Pare-Pare ∴∴ Rp186.500 Rp146.500 Rp23.000
  12. Harga Tiket Pelni KM Bukit Siguntang Pare-Pare – Makassar ∴∴ Rp149.000 Rp118.000 Rp20.000
  13. Harga Tiket Pelni KM Bukit Siguntang Maumere – Lewoleba ∴∴ Rp78.000 Rp62.000 Rp13.000
  14. Harga Tiket Pelni KM Bukit Siguntang Lewoleba – Kupang ∴∴ Rp139.000 Rp106.000 Rp20.000
  15. Harga Tiket Pelni KM Bukit Siguntang Kupang – Lewoleba ∴∴ Rp143.500 Rp110.500 Rp20.000
  16. Harga Tiket Pelni KM Bukit Siguntang Lewoleba – Maumere ∴∴ Rp74.000 Rp58.000 Rp13.000
  17. Harga Tiket Pelni KM Bukit Siguntang Maumere – Makassar ∴∴ Rp173.000 Rp133.000 Rp23.000

Baca Juga : Jadwal Kapal Dobonsolo

Informasi Lebih Lanjut Tentang  Jadwal Kapal Pelni Dan Tiket Kapal PELNI 2019 Silahkan Melalui Call Center

  • PSTN Jabodetabek: 162
  • Handphone: 021 162
  • PSTN Luar Jabodetabek: 021 21 88 7000
  • Fax: +62 21 6385 4130
  • E-mail: [email protected]

Jadwal Kapal Bukit Siguntang Januari 2019 | Jadwal KM Bukit Siguntang Februari 2019 | Jadwal Kapal Motor Bukit Siguntang Maret 2019 | Jadwal Kapal Pelni Bukit Siguntang April 2019 | Jadwal Kapal Laut Bukit Siguntang Mei 2019 | Jadwal Keberangkatan Kapal Bukit Siguntang Juni 2019 | Jadwal Keberangkatan KM Bukit Siguntang Juli 2019 | Jadwal Keberangkatan Kapal Motor Bukit Siguntang Agustus 2019 | Jadwal Keberangkatan Kapal Pelni Bukit Siguntang September 2019 | Jadwal Keberangkatan Kapal Laut Bukit Siguntang Oktober 2019 | Jadwal Terbaru Kapal Bukit Siguntang November Tahun 2019 | Jadwal Terbaru Kapal Pelni Bukit Siguntang Desember Tahun 2019 | Jadwal Kalpal Bukit Siguntang Lebaran 2019 bisa memperoleh informasi yang anda cari tentang “Jadwal Terbaru Kapal Pelni 2019.